[[{"header":{"parameterUnit":"m.s-1","parameterCategory":1,"la1":30.2991,"la2":30.254,"lo1":-89.0895,"lo2":-89.0444,"dy":0.0017,"dx":0.0017,"nx":28,"ny":28,"refTime":"2026-01-03T09:00:00:Z","depth":0,"parameterNumber":2,"parameterNumberName":"U-component_of_WINDS"},"data":[0,0,0,0,0,0,0,0,0,0,0,0,0,0,0,0,0,0,0,0,0,0,0,0,0,0,0,0,0,0,0,0,0,0,0,0,0,0,0,0,0,0,0,0,0,0,0,0,0,0,0,0,0,0,0,0,0,0,1.9686,1.9687,0,1.974,1.9741,1.9741,1.9716,1.9714,1.9713,1.9712,1.9773,1.9776,1.9779,0,0,0,0,0,0,0,0,0,0,0,0,0,1.9569,1.9571,1.9686,1.9687,1.9688,1.974,1.9741,1.9741,1.9716,1.9714,1.9712,1.9711,1.9772,1.9776,1.9779,0,0,0,0,0,0,0,0,0,0,0,0,0,1.9621,1.9572,1.9686,1.9681,1.9681,1.974,1.9741,1.9742,1.9716,1.9714,1.9712,1.971,1.9771,1.9775,1.978,1.9848,0,0,1.9793,1.9795,0,0,0,0,0,0,0,0,1.9618,1.9626,1.9681,1.9682,1.9682,1.9719,1.9722,1.9778,1.9717,1.9703,1.9711,1.9709,1.9757,1.9763,1.9777,1.9851,1.9854,1.9793,1.9796,1.9798,1.9799,0,0,0,0,0,0,0,1.9615,1.9623,1.9708,1.9682,1.9682,1.9678,1.9684,1.9732,1.9741,1.9704,1.9702,1.9709,1.9757,1.9773,1.9779,1.9855,1.9793,1.9797,1.98,1.9802,1.9991,1.9994,0,0,0,0,0,0,1.961,1.962,1.9706,1.9709,1.9644,1.9682,1.9688,1.9709,1.9741,1.9743,1.971,1.9707,1.9767,1.9774,1.9781,1.9865,1.9798,1.9802,1.9805,1.9989,1.9992,1.9995,0,0,0,0,0,0,1.9608,1.9618,1.9704,1.9664,1.9675,1.9686,1.9711,1.9711,1.9727,1.9745,1.9748,1.9725,1.9765,1.9775,1.9832,1.9867,1.9804,1.9808,1.9986,1.999,1.9993,2.0034,0,0,0,0,0,0,1.9605,1.9617,1.9642,1.9665,1.9677,1.9752,1.9713,1.9714,1.9734,1.9731,1.976,1.9762,1.9764,1.9826,1.9836,1.9872,1.9811,1.9983,1.9988,1.9992,2.0029,2.0038,2.0046,0,0,0,0,0,1.96,1.9652,1.9643,1.9654,1.9707,1.9754,1.9761,1.976,1.9737,1.9763,1.9775,1.9762,1.9861,1.9832,1.9844,1.9881,1.9981,1.9987,1.9992,2.0026,2.0037,2.0046,0,0,0,0,0,0,1.9634,1.9655,1.9645,1.9705,1.9728,1.9749,1.9782,1.9772,1.9803,1.9799,1.9799,1.9805,1.9865,1.9879,1.9846,1.9951,1.9918,1.9926,1.994,1.995,1.9958,1.9954,1.9815,0,0,0,0,0,1.9648,1.9682,1.9699,1.975,1.9762,1.977,1.979,1.9788,1.9812,1.9822,1.9838,1.9865,1.9902,1.9927,1.9962,2.0031,2.0039,2.0063,2.0072,2.0078,2.0086,2.0126,2.0138,2.0012,2.0012,2.0012,0,0,1.9678,1.9693,1.9715,1.9758,1.9775,1.9813,1.9778,1.9819,1.9848,1.9829,1.9884,1.9897,1.9927,1.9991,2.002,2.0004,2.0122,2.0085,2.009,2.0094,2.0133,2.0145,2.0155,2.0016,2.0015,2.0015,0,0,1.9752,1.9766,1.9811,1.9829,1.9855,1.9861,1.9872,1.9895,1.9903,1.9958,1.9945,1.9981,2.0045,2.0067,2.0086,2.0171,2.0161,2.0183,2.0227,2.0266,2.0276,2.0285,2.0317,2.0329,2.019,2.019,2.019,0,1.9786,1.984,1.9836,1.9878,1.9899,1.9882,1.993,1.9948,1.9986,2.0001,1.9982,2.0063,2.0082,2.0152,2.0173,2.0189,2.0204,2.018,2.0274,2.0283,2.0292,2.0323,2.0334,2.0193,2.0193,2.0192,2.0192,0,1.9882,1.992,1.9954,1.9989,2.0013,2.0058,2.0064,2.0089,2.0085,2.0094,2.0152,2.0173,2.0214,2.023,2.0227,2.0302,2.0291,2.0273,2.024,2.0306,2.0335,2.0347,2.0197,2.0196,2.0195,2.0194,0,0,1.9977,2.0011,2.0023,2.004,2.0069,2.0099,2.0145,2.0183,2.0206,2.0233,2.0273,2.0328,2.0312,2.0335,2.0335,2.0369,2.0438,2.0348,2.0349,2.0365,2.0524,2.0538,2.0551,2.0431,2.0433,2.0435,2.0522,0,2.0055,2.0131,2.0131,2.0203,2.024,2.0226,2.0266,2.029,2.0299,2.0334,2.0346,2.0385,2.0361,2.0375,2.0408,2.0422,2.047,2.0416,2.0471,2.0473,2.0465,2.0566,2.058,2.0661,2.0533,2.0535,2.0536,0,2.0154,2.0183,2.0259,2.0285,2.03,2.0336,2.0372,2.0404,2.0432,2.0437,2.0463,2.0458,2.0507,2.0472,2.0542,2.0506,2.0529,2.054,2.0543,2.0549,2.0509,2.0577,2.0687,2.07,2.0554,2.0553,2.0551,0,2.0218,2.0277,2.033,2.0345,2.0375,2.0401,2.0416,2.0441,2.0465,2.0497,2.0513,2.0552,2.0573,2.0605,2.0612,2.0585,2.0683,2.0648,2.0691,2.0691,2.0713,2.0711,2.083,2.0725,2.0725,2.0725,2.0725,0,2.0305,2.0353,2.036,2.0393,2.0447,2.0447,2.0501,2.0514,2.0537,2.0574,2.0565,2.0601,2.0607,2.0646,2.0652,2.0711,2.072,2.0728,2.0729,2.0729,2.0728,2.0745,2.074,2.0728,2.0727,2.0727,2.0726,0,2.0386,2.0392,2.045,2.0474,2.0482,2.0521,2.0543,2.0576,2.0585,2.0633,2.0644,2.066,2.0704,2.0714,2.0768,2.0772,2.0842,2.0837,2.0832,2.0832,2.0875,2.0872,2.1009,2.1029,2.091,2.0911,2.0912,0,2.0441,2.0477,2.0506,2.0529,2.0545,2.0583,2.0607,2.0609,2.0635,2.0671,2.0701,2.0744,2.0779,2.0852,2.087,2.0912,2.0909,2.0954,2.0915,2.0915,2.0912,2.091,2.0915,2.0962,2.0963,2.0964,2.0965,0,2.0539,2.0541,2.0575,2.0611,2.064,2.0669,2.0696,2.0717,2.0723,2.0754,2.0798,2.0826,2.088,2.0925,2.0967,2.0985,2.0978,2.0977,2.099,2.0991,2.0987,2.0992,2.0854,2.0974,2.0973,2.0973,2.0972,2.0972,2.061,2.0643,2.0668,2.0707,2.0728,2.0754,2.0787,2.08,2.0837,2.088,2.0881,2.093,2.0961,2.1016,2.1037,2.1078,2.1064,2.1082,2.1087,2.1091,2.1096,2.0979,2.1086,2.1085,2.1085,2.1085,2.1085,0,2.071,2.0725,2.0761,2.08,2.0831,2.0819,2.085,2.0878,2.0921,2.0949,2.0983,2.1037,2.108,2.1102,2.1146,2.1175,2.1173,2.1186,2.1185,2.119,2.1105,2.109,2.1187,2.1187,2.1187,2.1187,2.1187,2.1187,2.0765,2.082,2.0825,2.0891,2.0908,2.0955,2.0974,2.0999,2.1021,2.1081,2.1116,2.1129,2.1155,2.1202,2.1242,2.1248,2.1265,2.1281,2.1285,2.1206,2.1195,2.1185,2.1172,2.1285,2.1285,2.1367,2.1368,2.1368]},{"header":{"parameterUnit":"m.s-1","parameterCategory":1,"la1":30.2991,"la2":30.254,"lo1":-89.0895,"lo2":-89.0444,"dy":0.0017,"dx":0.0017,"nx":28,"ny":28,"refTime":"2026-01-03T09:00:00:Z","depth":0,"parameterNumber":3,"parameterNumberName":"V-component_of_WINDS"},"data":[0,0,0,0,0,0,0,0,0,0,0,0,0,0,0,0,0,0,0,0,0,0,0,0,0,0,0,0,0,0,0,0,0,0,0,0,0,0,0,0,0,0,0,0,0,0,0,0,0,0,0,0,0,0,0,0,0,0,2.5063,2.5064,0,2.5126,2.5127,2.5128,2.5112,2.5111,2.511,2.5108,2.5173,2.5176,2.5179,0,0,0,0,0,0,0,0,0,0,0,0,0,2.4929,2.4932,2.5063,2.5064,2.5064,2.5126,2.5127,2.5128,2.5112,2.5111,2.5109,2.5108,2.5172,2.5176,2.5179,0,0,0,0,0,0,0,0,0,0,0,0,0,2.4989,2.4932,2.5063,2.5064,2.5065,2.5126,2.5127,2.5128,2.5112,2.5111,2.5109,2.5107,2.5171,2.5175,2.5179,2.5243,0,0,2.5193,2.5195,0,0,0,0,0,0,0,0,2.4986,2.4994,2.5063,2.5064,2.5065,2.5109,2.5103,2.5167,2.5113,2.5094,2.5108,2.5106,2.5153,2.5159,2.5175,2.5246,2.5249,2.5193,2.5196,2.5197,2.5199,0,0,0,0,0,0,0,2.4982,2.4991,2.5088,2.5064,2.5065,2.5062,2.5068,2.5115,2.5133,2.5096,2.5095,2.5103,2.5154,2.5171,2.5176,2.525,2.5193,2.5197,2.5199,2.5201,2.5378,2.538,0,0,0,0,0,0,2.4977,2.4988,2.5086,2.509,2.502,2.5066,2.5073,2.5097,2.5133,2.5137,2.5104,2.5102,2.5164,2.5171,2.5179,2.5257,2.5197,2.5201,2.5204,2.5376,2.5378,2.5381,0,0,0,0,0,0,2.4974,2.4986,2.5083,2.5039,2.5051,2.507,2.5097,2.5099,2.5116,2.5139,2.5142,2.5118,2.5163,2.5172,2.5227,2.5259,2.5203,2.5207,2.5373,2.5377,2.5379,2.5413,0,0,0,0,0,0,2.497,2.4985,2.5009,2.5039,2.5053,2.5131,2.5099,2.5102,2.5124,2.5121,2.5153,2.5157,2.5162,2.5221,2.5232,2.5264,2.5211,2.5371,2.5375,2.5378,2.5409,2.5417,2.5423,0,0,0,0,0,2.4965,2.5015,2.501,2.5022,2.5084,2.5133,2.5141,2.5146,2.5126,2.5151,2.5166,2.5156,2.5253,2.5227,2.5239,2.5272,2.5369,2.5374,2.5378,2.5406,2.5415,2.5423,0,0,0,0,0,0,2.4988,2.5019,2.5014,2.5075,2.5102,2.513,2.5161,2.5156,2.5188,2.5184,2.5189,2.5197,2.5254,2.5268,2.5238,2.5337,2.5308,2.5315,2.5325,2.5334,2.5341,2.5337,2.5214,0,0,0,0,0,2.5,2.5037,2.5062,2.5114,2.5128,2.5142,2.5164,2.5166,2.5193,2.5204,2.5223,2.525,2.5287,2.5311,2.5346,2.5411,2.5418,2.544,2.5447,2.5452,2.5459,2.5496,2.5507,2.5396,2.5396,2.5396,0,0,2.5025,2.5047,2.507,2.5119,2.514,2.5179,2.5152,2.5193,2.5223,2.521,2.5264,2.5279,2.5309,2.537,2.5398,2.5384,2.5491,2.5459,2.5463,2.5467,2.5502,2.5513,2.5522,2.5399,2.5399,2.5398,0,0,2.5091,2.5111,2.5157,2.5178,2.521,2.522,2.5231,2.5261,2.527,2.5324,2.5316,2.5351,2.5414,2.5436,2.5456,2.5532,2.5525,2.5543,2.5581,2.5617,2.5626,2.5634,2.5662,2.5673,2.5549,2.555,2.555,0,2.5119,2.5177,2.5181,2.5225,2.5247,2.5238,2.5285,2.5305,2.5347,2.5363,2.5347,2.5427,2.5446,2.5513,2.5532,2.5547,2.5561,2.554,2.5624,2.5632,2.5639,2.5667,2.5678,2.5552,2.5551,2.5551,2.5551,0,2.521,2.5251,2.5284,2.5325,2.5351,2.5396,2.5407,2.5433,2.5433,2.5444,2.55,2.5523,2.5564,2.5579,2.5579,2.5646,2.5637,2.5623,2.5595,2.5652,2.5678,2.5689,2.5555,2.5554,2.5553,2.5553,0,0,2.5293,2.5336,2.5349,2.5368,2.5403,2.5434,2.5479,2.5519,2.5541,2.557,2.5609,2.5662,2.565,2.5672,2.5674,2.5706,2.5767,2.5687,2.5688,2.5703,2.5844,2.5857,2.5869,2.5761,2.5763,2.5765,2.5842,0,2.5364,2.5443,2.5448,2.552,2.5559,2.5551,2.559,2.5616,2.5628,2.5662,2.5675,2.5714,2.5693,2.5707,2.5737,2.5753,2.5795,2.5747,2.5798,2.58,2.5793,2.5882,2.5895,2.5967,2.5852,2.5854,2.5855,0,2.5457,2.549,2.5566,2.5596,2.5613,2.5648,2.5685,2.5718,2.5747,2.5754,2.5779,2.5778,2.5824,2.5793,2.5859,2.5826,2.5847,2.5858,2.5861,2.5867,2.5833,2.5893,2.599,2.6001,2.5871,2.587,2.5869,0,2.5512,2.5575,2.5629,2.5645,2.5682,2.5707,2.5723,2.5751,2.5775,2.5808,2.5823,2.5861,2.5882,2.5911,2.592,2.5896,2.5986,2.5955,2.5994,2.5994,2.6014,2.6013,2.6118,2.6025,2.6025,2.6024,2.6024,0,2.5592,2.5639,2.5654,2.5688,2.5741,2.5746,2.5799,2.5813,2.5838,2.5875,2.5869,2.5904,2.5912,2.5949,2.5956,2.601,2.6019,2.6026,2.6028,2.6028,2.6027,2.6043,2.6039,2.6027,2.6027,2.6026,2.6026,0,2.5663,2.5675,2.5733,2.5763,2.5772,2.581,2.5836,2.5868,2.5879,2.5926,2.5937,2.5955,2.5998,2.6009,2.6059,2.6064,2.6129,2.6124,2.6119,2.6119,2.6158,2.6155,2.6279,2.6296,2.6189,2.619,2.6191,0,2.5714,2.575,2.5784,2.5808,2.5826,2.5865,2.589,2.5897,2.5923,2.596,2.5988,2.603,2.6064,2.6133,2.6151,2.619,2.6188,2.6228,2.6194,2.6193,2.6191,2.619,2.6194,2.6235,2.6237,2.6237,2.6238,0,2.5803,2.5808,2.5844,2.5882,2.5912,2.5943,2.5972,2.5992,2.6003,2.6033,2.6077,2.6103,2.6156,2.6198,2.6238,2.6255,2.6249,2.6249,2.626,2.6262,2.6258,2.6263,2.6139,2.6246,2.6246,2.6245,2.6244,2.6244,2.5867,2.59,2.5929,2.597,2.5993,2.6021,2.6053,2.6069,2.6105,2.6149,2.6151,2.6199,2.6228,2.6281,2.63,2.6339,2.6327,2.6342,2.6347,2.6351,2.6356,2.625,2.6345,2.6345,2.6345,2.6345,2.6345,0,2.5958,2.5977,2.6014,2.6056,2.6088,2.608,2.6112,2.614,2.6182,2.621,2.6244,2.6295,2.6336,2.6357,2.6399,2.6425,2.6424,2.6436,2.6435,2.644,2.6363,2.635,2.6437,2.6437,2.6437,2.6437,2.6437,2.6437,2.6009,2.6065,2.6073,2.614,2.6158,2.6206,2.6225,2.6251,2.6274,2.6331,2.6366,2.6379,2.6405,2.6448,2.6486,2.6491,2.6507,2.6522,2.6526,2.6454,2.6445,2.6436,2.6424,2.6525,2.6525,2.6599,2.66,2.6601]}]]